Location: Mount Cross
(36.6390°N, 79.4878°W)
Time: 02:06:50
(UTC+00:00)

SR - Pass Details

Date: 30 March 2023
Orbit: 580 x 867 km, 66.7° (Epoch: 08 June)

Event Time Altitude Azimuth Distance (km) Brightness Sun altitude
Rises 07:10:23 0° 244° (WSW) 2,992 - -42.5°
Reaches altitude 10° 07:13:22 10° 263° (W) 2,030 - -42.1°
Maximum altitude 07:16:31 18° 307° (NW) 1,517 - -41.7°
Drops below altitude 10° 07:19:35 10° 352° (N) 1,950 - -41.3°
Exits shadow 07:21:16 - 5° (N) 2,451 ? -41.1°
Sets 07:22:24 0° 12° (NNE) 2,828 ? -40.9°
